Date,TemperatureHighF,TemperatureAvgF,TemperatureLowF,DewpointHighF,DewpointAvgF,DewpointLowF,HumidityHigh,HumidityAvg,HumidityLow,PressureMaxIn,PressureMinIn,WindSpeedMaxMPH,WindSpeedAvgMPH,GustSpeedMaxMPH,PrecipitationSumIn
2013-1-1,27,22,18,23,17,14,91,82,71,0.00,40.00,12,2,18,0.00
2013-1-2,25,21,17,24,20,15,96,92,89,0.00,40.00,8,3,15,0.00
2013-1-3,28,23,18,28,22,15,98,94,88,0.00,40.00,10,5,17,0.00
2013-1-4,32,28,24,28,25,22,95,90,82,0.00,40.00,16,8,24,0.00
2013-1-5,34,27,19,31,26,19,100,95,83,0.00,40.00,8,3,14,0.00
2013-1-6,34,33,31,34,32,29,100,98,92,0.00,40.00,10,5,16,0.00
2013-1-7,37,31,28,29,28,25,96,87,69,0.00,40.00,13,5,21,0.00
2013-1-8,38,31,27,31,28,25,94,88,74,0.00,40.00,9,3,13,0.00
2013-1-9,45,39,33,38,33,30,96,81,58,0.00,40.00,16,8,30,0.00
2013-1-10,41,33,24,35,30,24,100,90,67,0.00,40.00,6,1,13,0.00
2013-1-11,53,44,35,53,44,35,100,99,94,0.00,40.00,10,3,17,0.00
2013-1-12,58,52,47,52,48,37,100,87,63,0.00,40.00,13,5,18,0.00
2013-1-13,47,36,27,41,36,27,100,99,71,0.00,40.00,8,1,14,0.00
2013-1-14,27,22,18,27,20,18,100,94,84,0.00,40.00,13,3,23,0.00
2013-1-15,28,21,14,23,19,14,100,93,78,0.00,40.00,6,0,8,0.00
2013-1-16,34,26,17,32,22,17,100,86,59,0.00,40.00,14,5,20,0.00
2013-1-17,33,27,17,32,23,10,96,85,71,0.00,40.00,14,4,20,0.00
2013-1-18,36,24,13,27,19,11,97,81,62,0.00,40.00,14,5,21,0.00
2013-1-19,45,40,36,39,34,26,88,76,68,0.00,40.00,15,9,28,0.00
2013-1-20,43,21,13,38,14,7,87,75,65,0.00,40.00,21,10,36,0.00
2013-1-21,15,11,4,15,7,-2,99,85,72,0.00,40.00,13,5,18,0.00
2013-1-22,8,4,0,4,-1,-6,91,80,66,0.00,40.00,13,6,21,0.00
2013-1-23,16,9,1,15,7,-1,100,92,81,0.00,40.00,10,3,14,0.00
2013-1-24,16,10,4,14,8,4,100,90,74,0.00,40.00,3,0,8,0.00
2013-1-25,21,16,10,19,15,6,100,94,82,0.00,40.00,7,1,10,0.00
2013-1-26,27,21,17,21,19,16,100,92,77,0.00,40.00,7,2,14,0.00
2013-1-27,29,22,14,27,20,14,100,90,71,0.00,40.00,8,2,14,0.00
2013-1-28,43,36,28,43,36,28,100,100,100,0.00,40.00,8,1,15,0.00
2013-1-29,57,45,33,57,45,33,100,100,100,0.00,40.00,13,4,21,0.00
2013-1-30,58,47,32,58,47,32,100,100,100,0.00,40.00,17,4,25,0.00
2013-1-31,31,20,16,31,19,15,100,95,84,0.00,40.00,15,9,26,0.00
2013-2-1,17,14,9,15,12,6,100,90,76,0.00,40.00,13,8,20,0.00
2013-2-2,19,14,5,19,13,5,100,95,87,0.00,40.00,12,2,20,0.00
2013-2-3,19,11,2,18,10,2,100,95,87,0.00,40.00,12,3,16,0.00
2013-2-4,21,17,12,19,15,10,97,93,89,0.00,40.00,6,1,8,0.00
2013-2-5,27,20,9,27,18,9,100,95,81,0.00,40.00,8,3,13,0.00
2013-2-6,30,23,14,24,19,14,100,85,67,0.00,40.00,8,2,13,0.00
2013-2-7,36,30,25,31,25,20,99,83,74,0.00,40.00,9,3,15,0.00
2013-2-8,28,24,17,28,24,17,100,99,91,0.00,40.00,9,4,20,0.00
2013-2-9,32,19,4,24,16,4,100,88,56,0.00,40.00,6,1,14,0.00
2013-2-10,41,30,20,40,27,20,100,89,68,0.00,40.00,13,4,22,0.00
2013-2-11,44,38,32,44,35,30,100,91,77,0.00,40.00,21,10,40,0.00
2013-2-12,32,29,27,30,27,25,93,90,85,0.00,40.00,14,7,22,0.00
2013-2-13,37,30,26,30,27,24,96,89,75,0.00,40.00,9,2,14,0.00
2013-2-14,40,34,29,38,33,29,100,96,91,0.00,40.00,14,5,23,0.00
2013-2-15,32,25,22,31,21,17,97,83,70,0.00,40.00,13,6,18,0.00
2013-2-16,23,20,18,20,18,17,96,93,83,0.00,40.00,7,1,9,0.00
2013-2-17,24,17,8,13,10,7,94,76,57,0.00,40.00,9,1,10,0.00
2013-2-18,46,30,15,38,22,10,82,74,63,0.00,40.00,13,6,22,0.00
2013-2-19,47,29,18,43,28,15,100,93,76,0.00,40.00,17,11,30,0.00
2013-2-20,23,19,15,18,16,12,97,87,76,0.00,40.00,15,8,21,0.00
2013-2-21,23,19,16,21,17,14,100,89,77,0.00,40.00,8,4,16,0.00
2013-2-22,33,26,21,33,26,21,100,99,95,0.00,40.00,9,4,16,0.00
2013-2-23,33,30,26,33,28,24,100,93,82,0.00,40.00,13,6,20,0.00
2013-2-24,36,28,21,31,24,-100,100,91,72,0.00,40.00,8,3,14,0.00
2013-2-25,41,30,19,30,25,19,100,84,59,0.00,40.00,5,0,8,0.00
2013-2-26,35,30,26,33,27,-100,100,92,81,0.00,40.00,13,5,21,0.00
2013-2-27,35,34,32,35,34,32,100,100,100,0.00,40.00,0,0,0,0.00
2013-2-28,33,32,28,33,31,27,100,99,94,0.00,40.00,9,3,18,0.00
2013-3-1,29,25,23,28,24,22,98,96,92,0.00,40.00,10,4,16,0.00
2013-3-2,25,24,20,24,22,19,98,94,89,0.00,40.00,7,2,12,0.00
2013-3-3,26,22,15,21,19,15,98,88,78,0.00,40.00,8,3,12,0.00
2013-3-4,33,22,13,21,18,13,100,84,61,0.00,40.00,7,1,10,0.00
2013-3-5,34,26,18,28,23,17,98,89,75,0.00,40.00,12,4,18,0.00
2013-3-6,38,31,26,33,29,26,100,92,76,0.00,40.00,9,3,13,0.00
2013-3-7,33,31,25,32,28,23,100,90,72,0.00,40.00,6,1,10,0.00
2013-3-8,43,31,19,31,26,19,100,83,60,0.00,40.00,6,0,8,0.00
2013-3-9,45,36,28,36,31,27,98,83,61,0.00,40.00,9,3,13,0.00
2013-3-10,59,51,40,46,40,35,85,68,53,0.00,40.00,12,5,14,0.00
2013-3-11,57,50,38,51,46,36,100,88,57,0.00,40.00,14,6,20,0.00
2013-3-12,38,34,30,36,32,27,100,92,72,0.00,40.00,13,8,21,0.00
2013-3-13,32,28,23,29,23,16,100,81,53,0.00,40.00,14,7,23,0.00
2013-3-14,38,30,23,25,21,18,90,71,50,0.00,40.00,10,4,13,0.00
2013-3-15,38,34,30,35,32,22,100,90,68,0.00,40.00,9,4,17,0.00
2013-3-16,33,28,24,33,27,24,100,97,87,0.00,40.00,9,2,13,0.00
2013-3-17,30,25,19,27,19,13,95,79,57,0.00,40.00,10,4,17,0.00
2013-3-18,34,28,19,34,26,16,100,93,83,0.00,40.00,12,5,18,0.00
2013-3-19,34,26,22,34,24,20,100,93,83,0.00,40.00,17,10,30,0.00
2013-3-20,26,23,17,21,18,14,90,80,68,0.00,40.00,13,8,18,0.00
2013-3-21,29,24,16,28,22,14,100,93,82,0.00,40.00,13,7,21,0.00
2013-3-22,36,29,24,27,23,20,88,80,66,0.00,40.00,12,5,16,0.00
2013-3-23,35,31,27,28,26,25,93,84,72,0.00,40.00,5,0,7,0.00
2013-3-24,36,29,22,31,26,22,100,89,63,0.00,40.00,14,4,22,0.00
2013-3-25,38,34,30,33,29,27,89,82,71,0.00,40.00,13,7,22,0.00
2013-3-26,41,36,31,36,32,29,96,88,70,0.00,40.00,8,3,14,0.00
2013-3-27,45,37,30,32,29,27,94,74,53,0.00,40.00,13,7,25,0.00
2013-3-28,51,40,31,32,29,27,91,67,43,0.00,40.00,10,4,15,0.00
2013-3-29,51,40,29,28,26,25,87,60,36,0.00,40.00,8,2,12,0.00
2013-3-30,54,42,27,31,26,21,93,58,27,0.00,40.00,10,3,17,0.00
2013-3-31,54,46,40,44,37,-100,96,73,52,0.00,40.00,14,5,21,0.00
2013-4-1,40,30,27,37,20,14,98,68,46,0.00,40.00,15,6,24,0.00
2013-4-2,39,30,22,23,18,13,96,64,41,0.00,40.00,15,5,22,0.00
2013-4-3,40,32,23,20,18,15,82,58,40,0.00,40.00,8,2,15,0.00
2013-4-4,55,42,29,25,20,17,69,45,25,0.00,40.00,13,4,20,0.00
2013-4-5,47,40,33,35,26,20,92,59,38,0.00,40.00,8,2,17,0.00
2013-4-6,50,39,29,27,24,20,84,57,37,0.00,40.00,13,4,25,0.00
2013-4-7,57,47,36,49,37,26,91,71,38,0.00,40.00,17,8,28,0.00
2013-4-8,59,43,32,56,41,31,100,94,71,0.00,40.00,16,4,25,0.00
2013-4-9,50,43,40,47,43,40,100,99,84,0.00,40.00,7,2,12,0.00
2013-4-10,41,39,36,41,39,36,100,100,98,0.00,40.00,12,3,18,0.00
2013-4-11,37,35,34,37,35,34,100,100,97,0.00,40.00,13,7,23,0.00
2013-4-12,41,37,33,40,36,33,100,98,86,0.00,40.00,12,4,16,0.00
2013-4-13,40,38,34,39,33,27,100,86,63,0.00,40.00,15,7,23,0.00
2013-4-14,47,39,31,37,33,29,97,78,63,0.00,40.00,8,3,12,0.00
2013-4-15,67,55,41,57,46,35,92,71,54,0.00,40.00,13,6,20,0.00
2013-4-16,59,52,44,57,43,34,100,77,44,0.00,40.00,13,5,16,0.00
2013-4-17,56,46,38,44,37,32,100,74,48,0.00,40.00,10,5,20,0.00
2013-4-18,75,58,44,66,55,43,100,93,64,0.00,40.00,15,5,23,0.00
2013-4-19,59,44,32,59,41,31,100,89,69,0.00,40.00,18,10,30,0.00
2013-4-20,36,33,28,33,24,19,97,72,60,0.00,40.00,15,6,25,0.00
2013-4-21,49,37,24,31,26,22,100,68,40,0.00,40.00,9,2,12,0.00
2013-4-22,62,48,33,37,30,26,94,55,28,0.00,40.00,8,2,10,0.00
2013-4-23,68,56,44,55,42,34,100,62,40,0.00,40.00,14,5,17,0.00
2013-4-24,51,39,34,51,36,29,100,92,65,0.00,40.00,10,3,22,0.00
2013-4-25,49,42,35,41,33,28,99,72,45,0.00,40.00,15,6,25,0.00
2013-4-26,59,47,32,39,33,29,95,61,38,0.00,40.00,12,4,21,0.00
2013-4-27,69,57,44,41,36,29,81,50,23,0.00,40.00,8,3,14,0.00
2013-4-28,61,54,51,54,45,34,100,74,47,0.00,40.00,7,1,14,0.00
2013-4-29,69,59,52,56,53,50,100,82,51,0.00,40.00,7,1,10,0.00
2013-4-30,72,62,55,58,55,52,100,78,49,0.00,40.00,14,5,22,0.00
2013-5-1,81,70,58,56,53,48,88,58,33,0.00,40.00,10,4,16,0.00
2013-5-2,78,68,58,56,49,45,74,52,34,0.00,40.00,10,2,16,0.00
2013-5-3,76,68,57,51,42,29,56,40,19,0.00,40.00,7,2,15,0.00
2013-5-4,72,64,58,47,40,29,64,42,22,0.00,40.00,9,2,15,0.00
2013-5-5,73,61,49,45,38,25,75,46,18,0.00,40.00,7,1,12,0.00
2013-5-6,75,62,45,47,41,35,89,51,26,0.00,40.00,8,1,9,0.00
2013-5-7,76,64,50,51,46,38,67,52,36,0.00,40.00,6,1,13,0.00
2013-5-8,79,66,51,49,44,39,89,49,25,0.00,40.00,7,1,12,0.00
2013-5-9,79,67,52,57,49,42,94,58,27,0.00,40.00,6,1,10,0.00
2013-5-10,67,50,40,59,47,-100,100,95,60,0.00,40.00,9,1,15,0.00
2013-5-11,61,46,38,50,42,36,100,89,55,0.00,40.00,13,3,20,0.00
2013-5-12,45,39,35,37,31,-100,95,75,56,0.00,40.00,16,6,29,0.00
2013-5-13,53,42,31,30,27,25,84,59,35,0.00,40.00,8,2,14,0.00
2013-5-14,71,55,44,47,38,29,74,52,39,0.00,40.00,7,2,14,0.00
2013-5-15,78,68,54,59,48,41,86,53,28,0.00,40.00,12,4,18,0.00
2013-5-16,79,59,50,48,24,-100,88,50,23,0.00,40.00,8,1,12,0.00
2013-5-17,65,56,45,45,37,-100,89,61,44,0.00,40.00,7,1,12,0.00
2013-5-18,79,65,54,47,44,41,74,51,27,0.00,40.00,7,1,12,0.00
2013-5-19,85,71,53,61,52,44,87,53,35,0.00,40.00,6,1,8,0.00
2013-5-20,88,73,64,68,63,58,100,74,38,0.00,40.00,13,3,18,0.00
2013-5-21,81,73,65,68,62,56,100,70,44,0.00,40.00,9,3,17,0.00
2013-5-22,77,68,63,67,63,57,100,84,50,0.00,40.00,9,2,23,0.00
2013-5-23,63,50,42,63,50,42,100,100,100,0.00,40.00,9,2,17,0.00
2013-5-24,55,45,38,44,38,35,100,78,50,0.00,40.00,7,1,13,0.00
2013-5-25,61,50,36,42,38,32,100,68,35,0.00,40.00,8,1,10,0.00
2013-5-26,66,54,37,45,38,32,100,61,32,0.00,40.00,6,1,9,0.00
2013-5-27,68,54,41,51,41,32,99,66,31,0.00,40.00,8,1,14,0.00
2013-5-28,72,60,51,70,60,51,100,100,94,0.00,40.00,3,0,9,0.00
2013-5-29,79,70,63,70,65,63,100,87,61,0.00,40.00,9,3,18,0.00
2013-6-1,77,72,65,67,63,61,100,76,57,0.00,40.00,9,4,16,0.00
2013-6-2,68,62,51,64,54,-100,92,81,73,0.00,40.00,14,4,21,0.00
2013-6-3,66,54,41,47,42,39,100,66,40,0.00,40.00,7,1,10,0.00
2013-6-4,70,58,47,47,44,41,97,63,36,0.00,40.00,6,0,8,0.00
2013-6-5,69,60,52,50,43,38,78,54,36,0.00,40.00,6,1,12,0.00
2013-6-6,66,59,54,53,50,47,86,74,61,0.00,40.00,8,3,14,0.00
2013-6-7,62,55,50,54,52,49,99,88,71,0.00,40.00,5,1,9,0.00
2013-6-8,71,62,51,56,53,50,100,75,48,0.00,40.00,3,0,6,0.00
2013-6-9,76,66,57,56,54,50,92,66,47,0.00,40.00,6,2,12,0.00
2013-6-10,72,65,59,69,62,48,100,91,51,0.00,40.00,5,0,7,0.00
2013-6-11,78,69,61,67,63,61,100,83,60,0.00,40.00,8,2,17,0.00
2013-6-12,75,69,60,68,64,60,100,87,66,0.00,40.00,7,1,12,0.00
2013-6-13,76,68,60,67,59,51,100,76,44,0.00,40.00,8,1,17,0.00
2013-6-14,74,65,57,60,51,43,97,64,36,0.00,40.00,7,1,14,0.00
2013-6-15,75,64,58,62,57,48,94,77,56,0.00,40.00,9,1,18,0.00
2013-6-16,80,70,64,65,61,52,100,75,41,0.00,40.00,12,4,16,0.00
2013-6-17,82,68,59,62,58,52,99,72,40,0.00,40.00,8,2,12,0.00
2013-6-18,69,61,53,59,48,38,100,68,35,0.00,40.00,10,3,16,0.00
2013-6-19,75,61,44,53,45,41,98,60,34,0.00,40.00,7,1,9,0.00
2013-6-20,79,64,52,56,52,49,96,70,36,0.00,40.00,8,1,12,0.00
2013-6-22,87,82,78,71,67,62,77,61,45,0.00,40.00,8,2,9,0.00
2013-6-23,88,79,70,72,66,59,100,68,39,0.00,40.00,10,3,16,0.00
2013-6-24,85,76,69,70,66,63,97,74,48,0.00,40.00,9,2,15,0.00
2013-6-25,77,72,66,72,68,66,100,88,70,0.00,40.00,7,2,12,0.00
2013-6-26,84,75,66,70,67,64,100,78,52,0.00,40.00,7,1,12,0.00
2013-6-27,82,70,65,70,68,65,100,95,65,0.00,40.00,6,0,8,0.00
2013-6-28,74,67,64,68,65,63,100,93,69,0.00,40.00,6,1,12,0.00
2013-6-29,72,67,62,64,60,56,100,79,59,0.00,40.00,7,2,12,0.00
2013-6-30,77,68,60,62,58,55,94,75,46,0.00,40.00,6,1,14,0.00
2013-7-4,78,74,69,67,59,54,91,61,45,0.00,40.00,9,3,14,0.00
2013-7-5,83,73,66,66,61,57,89,68,43,0.00,40.00,6,0,9,0.00
2013-7-6,84,75,68,69,66,62,96,75,49,0.00,40.00,6,1,9,0.00
2013-7-7,79,73,68,72,69,66,100,88,69,0.00,40.00,5,0,8,0.00
2013-7-8,81,72,69,73,67,-100,95,89,71,0.00,40.00,7,1,12,0.00
2013-7-9,85,74,69,72,69,65,100,86,52,0.00,40.00,10,1,15,0.00
2013-7-10,85,74,67,75,62,-100,100,72,47,0.00,40.00,10,2,15,0.00
2013-7-11,76,67,58,58,55,49,96,68,41,0.00,40.00,7,1,10,0.00
2013-7-12,80,66,54,60,57,54,100,76,43,0.00,40.00,6,1,8,0.00
2013-7-13,83,74,60,65,57,48,100,59,32,0.00,40.00,7,1,12,0.00
2013-7-14,89,77,64,69,65,62,97,68,41,0.00,40.00,5,0,9,0.00
2013-7-15,88,78,70,74,70,68,97,79,54,0.00,40.00,7,0,9,0.00
2013-7-16,84,76,74,75,74,70,99,94,62,0.00,40.00,2,0,6,0.00
2013-7-17,91,80,74,80,72,68,93,77,47,0.00,40.00,9,1,13,0.00
2013-7-18,92,81,73,73,71,67,96,73,46,0.00,40.00,9,2,14,0.00
2013-7-19,90,82,77,73,70,63,88,67,43,0.00,40.00,12,4,21,0.00
2013-7-20,84,76,68,69,59,-100,88,59,35,0.00,40.00,7,1,12,0.00
2013-7-21,81,70,61,61,56,51,82,61,39,0.00,40.00,7,1,10,0.00
2013-7-22,82,70,65,67,61,58,87,74,48,0.00,40.00,7,1,8,0.00
2013-7-23,77,70,61,72,64,51,100,82,53,0.00,40.00,8,2,12,0.00
2013-7-24,71,63,53,53,49,47,90,62,46,0.00,40.00,7,2,10,0.00
2013-7-25,76,62,50,55,51,47,100,71,37,0.00,40.00,6,0,7,0.00
2013-7-26,78,68,59,63,57,55,92,69,46,0.00,40.00,7,1,12,0.00
2013-7-27,75,66,57,65,61,51,100,88,64,0.00,40.00,12,2,18,0.00
2013-7-28,65,57,50,58,53,49,100,87,65,0.00,40.00,9,2,18,0.00
2013-7-29,69,59,55,58,56,54,100,89,60,0.00,40.00,8,2,14,0.00
2013-7-30,77,66,53,60,56,51,100,73,41,0.00,40.00,2,0,6,0.00
2013-7-31,67,65,64,66,64,60,100,94,81,0.00,40.00,3,0,6,0.00
2013-8-1,75,67,61,64,61,53,100,81,48,0.00,40.00,8,1,12,0.00
2013-8-2,72,64,56,65,59,55,100,85,64,0.00,40.00,10,3,18,0.00
2013-8-3,76,68,57,63,55,51,100,67,43,0.00,40.00,7,1,16,0.00
2013-8-4,71,63,54,57,52,-100,97,71,48,0.00,40.00,5,0,9,0.00
2013-8-5,69,62,55,58,53,49,94,74,50,0.00,40.00,7,1,10,0.00
2013-8-6,77,68,63,68,62,56,98,84,68,0.00,40.00,7,2,13,0.00
2013-8-7,82,71,62,74,67,62,100,88,57,0.00,40.00,10,2,16,0.00
2013-8-8,75,68,63,69,59,52,100,78,46,0.00,40.00,7,1,10,0.00
2013-8-9,79,69,56,61,57,52,100,69,42,0.00,40.00,9,1,13,0.00
2013-8-10,76,69,58,61,55,51,100,65,44,0.00,40.00,6,1,8,0.00
2013-8-11,77,68,61,62,58,53,89,71,46,0.00,40.00,6,1,10,0.00
2013-8-21,85,76,66,68,65,60,95,72,46,0.00,40.00,9,2,15,0.00
2013-8-22,80,74,68,68,65,61,90,73,52,0.00,40.00,8,2,12,0.00
2013-8-23,78,68,56,61,56,52,100,69,41,0.00,40.00,6,1,9,0.00
2013-8-24,82,69,54,60,54,49,100,65,34,0.00,40.00,3,0,8,0.00
2013-8-25,85,72,61,64,57,-100,97,66,44,0.00,40.00,10,3,17,0.00
2013-8-26,83,76,68,71,66,62,83,72,57,0.00,40.00,7,3,13,0.00
2013-8-27,78,74,69,74,71,69,100,92,83,0.00,40.00,5,1,10,0.00
2013-8-28,81,77,69,74,70,68,98,80,68,0.00,40.00,5,1,7,0.00
2013-8-29,85,74,63,71,65,62,100,79,46,0.00,40.00,2,0,6,0.00
2013-8-30,85,76,68,73,68,65,99,77,53,0.00,40.00,12,2,17,0.00
2013-8-31,75,71,69,71,68,65,95,90,82,0.00,40.00,5,1,8,0.00
2013-9-15,59,53,51,55,46,-100,100,84,63,0.00,40.00,1,0,5,0.00
2013-9-16,61,54,45,55,49,42,100,83,52,0.00,40.00,8,2,12,0.00
2013-9-17,69,51,36,52,44,36,100,79,47,0.00,40.00,5,0,9,0.00
2013-9-18,48,45,43,47,44,43,100,98,90,0.00,40.00,0,0,0,0.00
2013-9-19,78,70,60,68,64,56,96,80,63,0.00,40.00,6,1,10,0.00
2013-9-20,76,71,67,71,68,65,100,90,74,0.00,40.00,7,3,14,0.00
2013-9-21,67,62,58,67,58,50,100,90,57,0.00,40.00,7,2,10,0.00
2013-10-18,62,50,42,48,43,39,100,80,44,0.00,40.00,8,3,15,0.00
2013-10-19,51,45,40,45,42,37,100,92,58,0.00,40.00,9,2,13,0.00
2013-10-20,56,47,40,46,39,-100,100,79,54,0.00,40.00,8,3,13,0.00
2013-10-21,56,51,42,51,45,37,99,83,65,0.00,40.00,8,4,13,0.00
2013-10-22,47,41,34,39,32,30,91,71,55,0.00,40.00,10,4,21,0.00
2013-10-23,47,39,33,37,33,27,100,80,50,0.00,40.00,8,1,13,0.00
2013-10-24,44,37,31,36,33,30,100,87,61,0.00,40.00,7,2,17,0.00
2013-10-25,45,40,32,37,32,29,100,74,58,0.00,40.00,8,4,14,0.00
2013-10-26,51,43,38,42,35,29,100,73,56,0.00,40.00,12,6,25,0.00
2013-10-27,51,40,32,36,32,-100,100,77,53,0.00,40.00,7,2,15,0.00
2013-10-28,47,39,35,40,32,-100,95,82,71,0.00,40.00,7,2,10,0.00
2013-10-29,45,41,38,37,34,31,86,77,69,0.00,40.00,5,1,8,0.00
2013-10-30,64,47,31,51,40,31,100,80,51,0.00,40.00,5,0,9,0.00
2013-11-11,42,35,27,40,32,24,100,89,76,0.00,40.00,9,3,15,0.00
2013-11-12,32,27,22,25,21,18,95,79,60,0.00,40.00,9,3,20,0.00
2013-11-13,39,30,20,27,21,16,96,73,44,0.00,40.00,14,6,22,0.00
2013-11-14,52,41,32,30,24,21,65,53,41,0.00,40.00,13,7,23,0.00
2013-11-15,52,45,38,32,28,25,65,51,40,0.00,40.00,9,4,16,0.00
2013-11-16,56,46,38,53,40,-100,97,84,65,0.00,40.00,13,5,22,0.00
2013-11-17,63,57,45,61,55,42,100,94,85,0.00,40.00,22,11,40,0.00
2013-11-18,42,37,35,36,30,27,83,76,71,0.00,40.00,16,10,30,0.00
2013-11-19,35,33,31,27,25,23,74,72,69,0.00,40.00,9,4,12,0.00
2013-12-15,22,18,12,22,16,8,100,93,82,0.00,40.00,15,5,22,0.00
2013-12-16,22,14,7,13,9,6,97,82,58,0.00,40.00,8,2,15,0.00
2013-12-17,28,22,14,27,21,13,100,97,86,0.00,40.00,9,3,14,0.00
2013-12-18,28,26,23,27,23,17,100,89,71,0.00,40.00,13,5,20,0.00
2013-12-19,38,33,28,35,29,20,100,88,68,0.00,40.00,8,3,10,0.00
2013-12-20,33,32,31,33,32,31,100,100,100,0.00,40.00,0,0,0,0.00
2013-12-21,32,31,31,32,29,-100,100,98,100,0.00,40.00,8,1,15,0.00
2013-12-22,32,31,29,32,31,29,100,100,100,0.00,40.00,0,0,0,0.00
2013-12-25,19,18,17,19,18,17,100,100,100,0.00,40.00,0,0,0,0.00